CFG6931 EDDF-GCLP

Flight info

Callsign CFG6931
Flight time N/A
Altitude 33000
Route SOBRA2L/18 SOBRA Y180 DIK UN857 TOLVU DCT RAPOR DCT GIMER DCT AHVEC UN857 DISAK DCT ARKIP DCT ARNAV DCT LMG DCT UVELI DCT OSMOB DCT VAVIX/N0386F210 DCT BTZ DCT URUNA/N0449F330 DCT SSN DCT VRA DCT NEA L14 ZANKO/N0451F350 L14 ADINO DCT ELVAR DCT BAROK UN873 SAMAR
Aircraft A321/M-SDE3FGHIRWY/LB1

Departure

Time 2026-05-06 14:54
Airport Frankfurt Main Airport (EDDF)

Arrival

Time N/A
Airport Gran Canaria Airport (GCLP)
Time Latitude Longitude Altitude Speed Heading
2026-05-06 14:10 50.04811 8.56583 356 ft 0 kts 340°
2026-05-06 14:39 50.04791 8.56595 357 ft 3 kts 336°
2026-05-06 14:39 50.04772 8.56606 364 ft 3 kts 341°
2026-05-06 14:40 50.04755 8.56621 361 ft 3 kts 285°
2026-05-06 14:40 50.04758 8.56648 360 ft 3 kts 230°
2026-05-06 14:40 50.04775 8.56672 359 ft 3 kts 201°
2026-05-06 14:40 50.04794 8.56683 363 ft 1 kts 205°
2026-05-06 14:43 50.04774 8.56669 359 ft 6 kts 205°
2026-05-06 14:43 50.04731 8.56607 362 ft 11 kts 231°
2026-05-06 14:44 50.04683 8.56502 359 ft 12 kts 247°
2026-05-06 14:44 50.04656 8.56391 364 ft 11 kts 250°
2026-05-06 14:44 50.04629 8.56276 363 ft 12 kts 250°
2026-05-06 14:45 50.04566 8.56013 359 ft 14 kts 249°
2026-05-06 14:45 50.04489 8.55936 360 ft 14 kts 196°
2026-05-06 14:45 50.04394 8.55909 356 ft 14 kts 176°
2026-05-06 14:45 50.04302 8.55953 356 ft 14 kts 160°
2026-05-06 14:46 50.04231 8.55903 358 ft 13 kts 248°
2026-05-06 14:46 50.04200 8.55776 352 ft 12 kts 249°
2026-05-06 14:46 50.04171 8.55656 352 ft 12 kts 250°
2026-05-06 14:46 50.04141 8.55529 357 ft 13 kts 250°
2026-05-06 14:47 50.04108 8.55390 358 ft 14 kts 250°
2026-05-06 14:47 50.04074 8.55248 357 ft 14 kts 249°
2026-05-06 14:47 50.04040 8.55104 354 ft 15 kts 249°
2026-05-06 14:47 50.04002 8.54948 357 ft 16 kts 249°
2026-05-06 14:48 50.03959 8.54769 358 ft 19 kts 249°
2026-05-06 14:48 50.03911 8.54567 351 ft 21 kts 250°
2026-05-06 14:48 50.03859 8.54367 354 ft 5 kts 235°
2026-05-06 14:48 50.03852 8.54353 354 ft 2 kts 235°
2026-05-06 14:49 50.03844 8.54334 351 ft 3 kts 235°
2026-05-06 14:49 50.03829 8.54301 353 ft 5 kts 235°
2026-05-06 14:49 50.03808 8.54250 350 ft 6 kts 241°
2026-05-06 14:49 50.03788 8.54171 350 ft 11 kts 250°
2026-05-06 14:50 50.03753 8.54027 352 ft 18 kts 249°
2026-05-06 14:50 50.03703 8.53816 345 ft 24 kts 249°
2026-05-06 14:50 50.03648 8.53594 346 ft 21 kts 248°
2026-05-06 14:50 50.03614 8.53458 337 ft 20 kts 249°
2026-05-06 14:51 50.03566 8.53257 336 ft 20 kts 249°
2026-05-06 14:51 50.03519 8.53061 334 ft 19 kts 249°
2026-05-06 14:51 50.03472 8.52872 332 ft 19 kts 247°
2026-05-06 14:51 50.03435 8.52736 333 ft 0 kts 248°
2026-05-06 14:52 50.03434 8.52731 334 ft 3 kts 248°
2026-05-06 14:52 50.03424 8.52691 334 ft 9 kts 248°
2026-05-06 14:53 50.03376 8.52602 333 ft 11 kts 203°
2026-05-06 14:53 50.03298 8.52594 332 ft 15 kts 180°
2026-05-06 14:53 50.02972 8.52592 332 ft 80 kts 180°
2026-05-06 14:53 50.02225 8.52603 335 ft 132 kts 179°
2026-05-06 14:54 50.01163 8.52613 333 ft 172 kts 179°
2026-05-06 14:54 49.99915 8.52653 715 ft 177 kts 182°
2026-05-06 14:54 49.98673 8.52684 1308 ft 181 kts 181°
2026-05-06 14:54 49.97413 8.52770 1754 ft 186 kts 180°
2026-05-06 14:55 49.96051 8.52867 1907 ft 205 kts 182°
2026-05-06 14:55 49.94559 8.52970 2049 ft 222 kts 180°
2026-05-06 14:55 49.92988 8.53082 2424 ft 228 kts 181°
2026-05-06 14:55 49.91408 8.53196 3024 ft 226 kts 180°
2026-05-06 14:56 49.89840 8.53310 3587 ft 226 kts 180°
2026-05-06 14:56 49.88283 8.53420 4090 ft 228 kts 180°
2026-05-06 14:56 49.86721 8.53142 4548 ft 230 kts 199°
2026-05-06 14:56 49.85168 8.52292 4842 ft 241 kts 201°
2026-05-06 14:57 49.83564 8.51386 5180 ft 253 kts 202°
2026-05-06 14:57 49.81885 8.50429 5702 ft 260 kts 202°
2026-05-06 14:57 49.80177 8.49457 6356 ft 263 kts 202°
2026-05-06 14:57 49.78478 8.48485 6994 ft 265 kts 204°
2026-05-06 14:58 49.76959 8.46906 7548 ft 267 kts 229°
2026-05-06 14:58 49.76045 8.44433 8170 ft 269 kts 254°
2026-05-06 14:58 49.75926 8.41524 8762 ft 276 kts 279°
2026-05-06 14:58 49.76382 8.38618 9425 ft 280 kts 282°
2026-05-06 14:59 49.76866 8.35673 10002 ft 287 kts 282°
2026-05-06 14:59 49.77371 8.32556 10144 ft 308 kts 282°
2026-05-06 14:59 49.77904 8.29229 10269 ft 330 kts 282°
2026-05-06 14:59 49.78470 8.25693 10583 ft 343 kts 282°
2026-05-06 15:00 49.79050 8.22084 11125 ft 349 kts 282°
2026-05-06 15:00 49.79636 8.18429 11702 ft 351 kts 282°
2026-05-06 15:00 49.80223 8.14738 12254 ft 355 kts 282°
2026-05-06 15:00 49.80807 8.11069 12869 ft 356 kts 283°
2026-05-06 15:01 49.81402 8.07316 13433 ft 360 kts 282°
2026-05-06 15:01 49.82001 8.03534 13924 ft 364 kts 283°
2026-05-06 15:01 49.82606 7.99716 14431 ft 366 kts 282°
2026-05-06 15:01 49.83216 7.95878 14925 ft 369 kts 282°
2026-05-06 15:02 49.83832 7.91995 15390 ft 372 kts 282°
2026-05-06 15:02 49.84445 7.88097 15889 ft 374 kts 282°
2026-05-06 15:02 49.85058 7.84156 16346 ft 378 kts 282°
2026-05-06 15:02 49.85675 7.80180 16783 ft 382 kts 281°
2026-05-06 15:03 49.86299 7.76168 17247 ft 384 kts 282°
2026-05-06 15:03 49.86925 7.72177 17684 ft 388 kts 282°
2026-05-06 15:03 49.87567 7.68103 18106 ft 391 kts 282°
2026-05-06 15:03 49.88208 7.64001 18496 ft 393 kts 282°
2026-05-06 15:04 49.88850 7.59861 18900 ft 395 kts 282°
2026-05-06 15:04 49.89489 7.55717 19302 ft 397 kts 281°
2026-05-06 15:04 49.90131 7.51541 19722 ft 399 kts 282°
2026-05-06 15:04 49.90772 7.47347 20116 ft 401 kts 281°
2026-05-06 15:05 49.91415 7.43129 20536 ft 402 kts 282°
2026-05-06 15:05 49.92061 7.38890 20913 ft 405 kts 282°
2026-05-06 15:05 49.92709 7.34627 21309 ft 406 kts 281°
2026-05-06 15:05 49.93349 7.30414 21703 ft 408 kts 282°
2026-05-06 15:06 49.94001 7.26115 22129 ft 409 kts 282°
2026-05-06 15:06 49.94650 7.21811 22540 ft 410 kts 282°
2026-05-06 15:06 49.95299 7.17499 22939 ft 412 kts 282°
2026-05-06 15:06 49.95953 7.13155 23323 ft 414 kts 282°
2026-05-06 15:07 49.96607 7.08792 23642 ft 416 kts 282°
2026-05-06 15:07 49.97260 7.04400 23938 ft 418 kts 282°
2026-05-06 15:07 49.97913 6.99989 24230 ft 420 kts 281°
2026-05-06 15:07 49.98571 6.95553 24539 ft 422 kts 281°
2026-05-06 15:08 49.99116 6.91076 24923 ft 421 kts 274°
2026-05-06 15:08 49.99227 6.86613 25289 ft 419 kts 266°
2026-05-06 15:08 49.99092 6.82085 25565 ft 422 kts 265°
2026-05-06 15:08 49.98952 6.77510 25832 ft 425 kts 265°
2026-05-06 15:09 49.98813 6.72912 26114 ft 427 kts 265°
2026-05-06 15:09 49.98668 6.68290 26395 ft 429 kts 265°
2026-05-06 15:09 49.98519 6.63641 26661 ft 431 kts 265°
2026-05-06 15:09 49.98302 6.59002 26917 ft 432 kts 260°
2026-05-06 15:10 49.97672 6.54442 27165 ft 432 kts 251°
2026-05-06 15:10 49.96605 6.50082 27423 ft 432 kts 245°
2026-05-06 15:10 49.95418 6.45868 27686 ft 434 kts 245°
2026-05-06 15:10 49.94207 6.41563 27943 ft 435 kts 245°
2026-05-06 15:11 49.93018 6.37336 28200 ft 437 kts 244°
2026-05-06 15:11 49.91775 6.32922 28499 ft 439 kts 245°
2026-05-06 15:11 49.90548 6.28568 28729 ft 441 kts 245°
2026-05-06 15:11 49.89302 6.24229 29069 ft 440 kts 244°
2026-05-06 15:12 49.88049 6.19905 29427 ft 440 kts 244°
2026-05-06 15:12 49.86831 6.15625 29797 ft 439 kts 244°
2026-05-06 15:12 49.85396 6.11474 30091 ft 437 kts 236°
2026-05-06 15:12 49.83668 6.07600 30362 ft 436 kts 233°
2026-05-06 15:13 49.81918 6.03769 30645 ft 436 kts 233°
2026-05-06 15:13 49.80166 5.99954 30942 ft 435 kts 233°
2026-05-06 15:13 49.78405 5.96139 31241 ft 434 kts 233°
2026-05-06 15:13 49.76652 5.92352 31532 ft 434 kts 233°
2026-05-06 15:14 49.74935 5.88515 31803 ft 434 kts 237°
2026-05-06 15:14 49.73564 5.84358 32036 ft 437 kts 246°
2026-05-06 15:14 49.72527 5.79930 32240 ft 438 kts 249°
2026-05-06 15:14 49.71511 5.75493 32470 ft 438 kts 249°
2026-05-06 15:15 49.70495 5.71116 32728 ft 438 kts 248°
2026-05-06 15:15 49.69462 5.66695 32844 ft 437 kts 248°
2026-05-06 15:15 49.68433 5.62287 32857 ft 435 kts 248°
2026-05-06 15:16 49.66382 5.53534 32865 ft 433 kts 248°
2026-05-06 15:16 49.64329 5.44791 32862 ft 433 kts 248°
2026-05-06 15:17 49.62284 5.36124 32864 ft 434 kts 249°
2026-05-06 15:17 49.60341 5.27315 32865 ft 435 kts 251°
2026-05-06 15:18 49.58520 5.18432 32871 ft 435 kts 252°
2026-05-06 15:18 49.56933 5.09434 32870 ft 435 kts 254°
2026-05-06 15:19 49.55426 5.00461 32875 ft 435 kts 254°
2026-05-06 15:19 49.53859 4.91471 32874 ft 435 kts 253°
2026-05-06 15:20 49.52242 4.82492 32864 ft 436 kts 253°
2026-05-06 15:20 49.50608 4.73498 32859 ft 437 kts 253°
2026-05-06 15:21 49.48974 4.64481 32863 ft 438 kts 253°
2026-05-06 15:21 49.47346 4.55526 32871 ft 438 kts 253°
2026-05-06 15:22 49.45694 4.46512 32877 ft 438 kts 253°
2026-05-06 15:22 49.44039 4.37498 32874 ft 439 kts 252°
2026-05-06 15:23 49.42367 4.28468 32874 ft 439 kts 253°
2026-05-06 15:23 49.40696 4.19510 32876 ft 440 kts 253°
2026-05-06 15:24 49.39003 4.10486 32877 ft 440 kts 253°
2026-05-06 15:24 49.37311 4.01472 32891 ft 440 kts 252°
2026-05-06 15:25 49.34692 3.93071 32881 ft 436 kts 234°
2026-05-06 15:25 49.31336 3.85393 32886 ft 437 kts 234°
2026-05-06 15:26 49.27968 3.77640 32889 ft 437 kts 236°
2026-05-06 15:26 49.24597 3.69899 32901 ft 437 kts 235°
2026-05-06 15:27 49.21217 3.62170 32894 ft 437 kts 236°
2026-05-06 15:27 49.17836 3.54448 32892 ft 437 kts 235°
2026-05-06 15:28 49.14468 3.46793 32892 ft 438 kts 235°
2026-05-06 15:28 49.11063 3.39089 32891 ft 438 kts 234°
2026-05-06 15:29 49.07648 3.31388 32898 ft 438 kts 235°
2026-05-06 15:29 49.04244 3.23702 32899 ft 438 kts 235°
2026-05-06 15:30 49.00849 3.16070 32897 ft 438 kts 235°
2026-05-06 15:30 48.97423 3.08407 32901 ft 438 kts 235°
2026-05-06 15:31 48.93987 3.00756 32906 ft 438 kts 235°
2026-05-06 15:31 48.90549 2.93108 32911 ft 438 kts 235°
2026-05-06 15:32 48.85426 2.81713 32905 ft 437 kts 235°
2026-05-06 15:32 48.81980 2.74108 32910 ft 438 kts 234°
2026-05-06 15:33 48.78530 2.66497 32914 ft 438 kts 234°
2026-05-06 15:33 48.75080 2.58894 32911 ft 438 kts 235°
2026-05-06 15:34 48.71639 2.51350 32901 ft 439 kts 235°
2026-05-06 15:34 48.68153 2.43734 32902 ft 440 kts 235°
2026-05-06 15:35 48.64661 2.36129 32903 ft 441 kts 235°
2026-05-06 15:35 48.61161 2.28542 32913 ft 441 kts 235°
2026-05-06 15:36 48.57151 2.21975 32910 ft 440 kts 217°
2026-05-06 15:36 48.51774 2.17701 32909 ft 439 kts 197°
2026-05-06 15:37 48.45817 2.15655 32902 ft 439 kts 192°
2026-05-06 15:37 48.39827 2.13717 32886 ft 441 kts 192°
2026-05-06 15:38 48.33810 2.11766 32888 ft 444 kts 192°
2026-05-06 15:38 48.27740 2.10439 32888 ft 445 kts 180°
2026-05-06 15:39 48.24658 2.10758 33005 ft 445 kts 172°
2026-05-06 15:39 48.21609 2.11436 33285 ft 445 kts 172°
2026-05-06 15:39 48.18551 2.12096 33563 ft 444 kts 172°
2026-05-06 15:39 48.15496 2.12728 33830 ft 443 kts 174°
2026-05-06 15:40 48.09335 2.12397 33933 ft 445 kts 188°
2026-05-06 15:40 48.03198 2.11182 33946 ft 445 kts 188°
2026-05-06 15:41 47.97099 2.10036 34061 ft 444 kts 188°
2026-05-06 15:41 47.94046 2.09461 34293 ft 443 kts 187°
2026-05-06 15:41 47.90979 2.08882 34048 ft 443 kts 188°
2026-05-06 15:42 47.87926 2.08302 33492 ft 444 kts 188°
2026-05-06 15:42 47.84865 2.07717 33048 ft 442 kts 188°
2026-05-06 15:42 47.81801 2.07130 32900 ft 446 kts 188°
2026-05-06 15:42 47.78712 2.06541 32921 ft 451 kts 187°
2026-05-06 15:43 47.72475 2.05370 32918 ft 458 kts 187°
2026-05-06 15:43 47.66172 2.04188 32919 ft 452 kts 188°
2026-05-06 15:44 47.60160 2.01810 32932 ft 448 kts 202°
2026-05-06 15:44 47.54354 1.98410 32923 ft 448 kts 201°
2026-05-06 15:45 47.48578 1.95072 32934 ft 448 kts 201°
2026-05-06 15:45 47.42780 1.91734 32932 ft 448 kts 202°
2026-05-06 15:46 47.36973 1.88380 32945 ft 448 kts 201°
2026-05-06 15:46 47.31165 1.85039 32943 ft 448 kts 201°
2026-05-06 15:47 47.25351 1.81716 32945 ft 448 kts 201°
2026-05-06 15:47 47.19571 1.78411 32949 ft 448 kts 201°
2026-05-06 15:48 47.13752 1.75111 32951 ft 449 kts 201°
2026-05-06 15:48 47.07915 1.71838 32947 ft 449 kts 201°
2026-05-06 15:49 47.02086 1.68571 32949 ft 449 kts 201°
2026-05-06 15:49 46.96258 1.65300 32948 ft 449 kts 201°
2026-05-06 15:50 46.90455 1.62053 32952 ft 452 kts 202°
2026-05-06 15:50 46.84570 1.58778 32938 ft 453 kts 202°
2026-05-06 15:51 46.78683 1.55498 32950 ft 453 kts 202°
2026-05-06 15:51 46.72788 1.52228 32942 ft 454 kts 202°
2026-05-06 15:52 46.66931 1.48981 32946 ft 453 kts 202°
2026-05-06 15:52 46.61034 1.45718 32937 ft 454 kts 201°
2026-05-06 15:53 46.55137 1.42466 32939 ft 453 kts 202°
2026-05-06 15:53 46.49249 1.39229 32930 ft 452 kts 202°
2026-05-06 15:54 46.43400 1.36030 32929 ft 452 kts 201°
2026-05-06 15:54 46.37517 1.32813 33275 ft 452 kts 201°
2026-05-06 15:55 46.34584 1.31204 33585 ft 450 kts 201°
2026-05-06 15:55 46.31658 1.29601 33872 ft 449 kts 201°
2026-05-06 15:55 46.28734 1.28008 34109 ft 448 kts 202°
2026-05-06 15:55 46.25813 1.26419 34327 ft 448 kts 202°
2026-05-06 15:56 46.22904 1.24839 34527 ft 447 kts 202°
2026-05-06 15:56 46.20032 1.23281 34708 ft 447 kts 201°
2026-05-06 15:56 46.17125 1.21709 34869 ft 447 kts 202°
2026-05-06 15:56 46.14214 1.20136 34908 ft 447 kts 202°
2026-05-06 15:57 46.08385 1.16980 34914 ft 447 kts 202°
2026-05-06 15:57 46.02559 1.13825 34915 ft 448 kts 202°
2026-05-06 15:58 45.96725 1.10676 34918 ft 448 kts 201°
2026-05-06 15:58 45.90934 1.07566 34920 ft 448 kts 202°
2026-05-06 15:59 45.85093 1.04444 34922 ft 448 kts 202°
2026-05-06 15:59 45.79663 1.00224 34913 ft 443 kts 220°
2026-05-06 16:00 45.74940 0.94555 34908 ft 443 kts 221°
2026-05-06 16:00 45.70210 0.88893 34901 ft 444 kts 221°
2026-05-06 16:01 45.65497 0.83286 34896 ft 443 kts 221°
2026-05-06 16:01 45.60761 0.77654 34901 ft 444 kts 221°
2026-05-06 16:02 45.56010 0.72006 34898 ft 445 kts 221°
2026-05-06 16:02 45.51249 0.66365 34905 ft 445 kts 221°
2026-05-06 16:03 45.46520 0.60768 34913 ft 445 kts 221°
2026-05-06 16:03 45.41747 0.55140 34917 ft 445 kts 221°
2026-05-06 16:04 45.36977 0.49528 34919 ft 445 kts 221°
2026-05-06 16:04 45.32207 0.43917 34919 ft 445 kts 221°
2026-05-06 16:05 45.27463 0.38360 34923 ft 445 kts 221°
2026-05-06 16:05 45.22675 0.32758 34936 ft 450 kts 221°
2026-05-06 16:06 45.17798 0.27053 34939 ft 458 kts 221°
2026-05-06 16:06 45.12840 0.21276 34942 ft 465 kts 221°
2026-05-06 16:07 45.07805 0.15439 34939 ft 470 kts 221°
2026-05-06 16:07 45.02733 0.09566 34952 ft 474 kts 221°
2026-05-06 16:08 44.97643 0.03679 34950 ft 477 kts 221°
2026-05-06 16:08 44.95097 0.00742 35111 ft 466 kts 221°
2026-05-06 16:08 44.92596 -0.02136 34991 ft 460 kts 221°
2026-05-06 16:09 44.90155 -0.04940 34943 ft 447 kts 221°
2026-05-06 16:09 44.87752 -0.07696 34944 ft 444 kts 221°
2026-05-06 16:09 44.82969 -0.13190 34967 ft 443 kts 221°
2026-05-06 16:10 44.78196 -0.18666 34952 ft 443 kts 221°
2026-05-06 16:10 44.73446 -0.24097 34971 ft 443 kts 221°
2026-05-06 16:11 44.68660 -0.29558 34969 ft 443 kts 221°
2026-05-06 16:11 44.63851 -0.34969 34965 ft 443 kts 219°
2026-05-06 16:12 44.58848 -0.39946 34975 ft 444 kts 216°
2026-05-06 16:12 44.53685 -0.44732 34978 ft 444 kts 216°
2026-05-06 16:13 44.48551 -0.49535 34981 ft 444 kts 217°
2026-05-06 16:13 44.43456 -0.54416 34983 ft 443 kts 217°
2026-05-06 16:14 44.38379 -0.59302 34980 ft 443 kts 217°
2026-05-06 16:14 44.33332 -0.64118 34993 ft 442 kts 217°
2026-05-06 16:15 44.28255 -0.68939 34995 ft 442 kts 217°
2026-05-06 16:15 44.23244 -0.73877 34992 ft 440 kts 219°
2026-05-06 16:16 44.18344 -0.78964 34986 ft 439 kts 219°
2026-05-06 16:16 44.13481 -0.84005 34992 ft 438 kts 219°